Weather History for KCEY - January, 2014

Change the Weather History Date:

Friday, January 17, 2014

  Actual Average (KPAH) Record (KPAH)
Temperature  
Mean Temperature 26 °F 34 °F  
Max Temperature 37 °F 43 °F 68 °F (1952)
Min Temperature 15 °F 26 °F -14 °F (1982)
Degree Days  
Heating Degree Days 39 31  
Month to date heating degree days 524  
Since 1 July heating degree days 2155  
Cooling Degree Days 0 0  
Month to date cooling degree days 0  
Year to date cooling degree days 0  
Moisture  
Dew Point 14 °F    
Average Humidity 63    
Maximum Humidity 93    
Minimum Humidity 43    
Precipitation  
Precipitation 0.00 in 0.12 in 2.33 in (1969)
Month to date precipitation 2.01  
Year to date precipitation 2.01  
Snow  
Snow 0.00 in 0.10 in 5.40 in (1994)
Month to date snowfall 1.5  
Since 1 July snowfall 3.8  
Snow Depth -    
Sea Level Pressure  
Sea Level Pressure 30.03 in    
Wind  
Wind Speed 12 mph (WNW)    
Max Wind Speed 22 mph    
Max Gust Speed 29 mph    
Visibility 10 miles    
Events      
T = Trace of Precipitation, MM = Missing Value Source: NWS Daily Summary

Daily Weather History Graph

Daily Weather History Graph

Search for Another Location

Airport or City:

Trip Planner

Search our weather history database for the weather conditions in past years. The results will help you decide how hot, cold, wet, or windy it might be!

Date:

Astronomy

Jan. 17, 2014 Rise Set
Actual Time 7:04 AM CST 5:03 PM CST
Civil Twilight 6:36 AM CST 5:31 PM CST
Nautical Twilight 6:04 AM CST 6:03 PM CST
Astronomical Twilight 5:33 AM CST 6:34 PM CST
Moon 6:45 PM CST (1/17) 7:35 AM CST (1/17)
Length of Visible Light 10h 55m
Length of Day
9h 59m
Full, 98% of the Moon is Illuminated
Jan 17
Full
Jan 23
Last Quarter
Jan 30
New
Feb 6
First Quarter
Feb 14
Full

Hourly Weather History & Observations

Time (CST) Temp. Windchill Dew Point Humidity Pressure Visibility Wind Dir Wind Speed Gust Speed Precip Events Conditions
12:15 AM 35.6 °F 29.2 °F 26.6 °F 70% 29.82 in 10.0 mi WSW 8.1 mph - N/A   Mostly Cloudy
12:35 AM 37.4 °F 30.3 °F 26.6 °F 65% 29.83 in 10.0 mi WSW 10.4 mph - N/A   Overcast
12:55 AM 35.6 °F 29.2 °F 26.6 °F 70% 29.83 in 10.0 mi WSW 8.1 mph - N/A   Overcast
1:15 AM 35.6 °F 29.9 °F 26.6 °F 70% 29.83 in 10.0 mi West 6.9 mph - N/A   Overcast
1:35 AM 35.6 °F 29.2 °F 26.6 °F 70% 29.83 in 10.0 mi WSW 8.1 mph - N/A   Overcast
1:55 AM 35.6 °F 28.0 °F 26.6 °F 70% 29.84 in 10.0 mi West 10.4 mph 16.1 mph N/A   Overcast
2:15 AM 35.6 °F 27.1 °F 26.6 °F 70% 29.84 in 10.0 mi West 12.7 mph - N/A   Overcast
2:35 AM 35.6 °F 27.5 °F 26.6 °F 70% 29.84 in 10.0 mi West 11.5 mph - N/A   Overcast
2:55 AM 35.6 °F 27.5 °F 26.6 °F 70% 29.85 in 10.0 mi West 11.5 mph - N/A   Mostly Cloudy
3:15 AM 33.8 °F 25.3 °F 26.6 °F 75% 29.86 in 10.0 mi WNW 11.5 mph - N/A   Overcast
3:35 AM 35.6 °F 27.5 °F 26.6 °F 70% 29.86 in 10.0 mi WNW 11.5 mph - N/A   Overcast
3:55 AM 33.8 °F 23.9 °F 24.8 °F 70% 29.87 in 10.0 mi NW 15.0 mph 18.4 mph N/A   Overcast
4:15 AM 32.0 °F 20.1 °F 23.0 °F 69% 29.88 in 10.0 mi NW 19.6 mph 27.6 mph N/A   Mostly Cloudy
4:35 AM 30.2 °F 18.1 °F 24.8 °F 80% 29.90 in 9.0 mi NNW 18.4 mph 28.8 mph N/A   Overcast
4:55 AM 28.4 °F 16.6 °F 19.4 °F 69% 29.91 in 10.0 mi NW 16.1 mph 21.9 mph N/A   Mostly Cloudy
5:15 AM 28.4 °F 16.6 °F 15.8 °F 59% 29.92 in 10.0 mi NW 16.1 mph 23.0 mph N/A   Overcast
5:35 AM 28.4 °F 15.8 °F 14.0 °F 55% 29.93 in 10.0 mi NW 18.4 mph 28.8 mph N/A   Overcast
5:55 AM 28.4 °F 14.7 °F 12.2 °F 51% 29.94 in 10.0 mi WNW 21.9 mph 26.5 mph N/A   Overcast
6:15 AM 26.6 °F 15.7 °F 10.4 °F 51% 29.96 in 10.0 mi NW 12.7 mph 24.2 mph N/A   Overcast
6:35 AM 24.8 °F 11.5 °F 10.4 °F 54% 29.97 in 10.0 mi NW 17.3 mph 24.2 mph N/A   Overcast
6:55 AM 24.8 °F 12.9 °F 10.4 °F 54% 29.98 in 10.0 mi NW 13.8 mph - N/A   Overcast
7:15 AM 23.0 °F 10.1 °F 8.6 °F 54% 29.99 in 10.0 mi NW 15.0 mph 20.7 mph N/A   Mostly Cloudy
7:35 AM 23.0 °F 10.1 °F 8.6 °F 54% 30.00 in 10.0 mi NW 15.0 mph 18.4 mph N/A   Clear
7:55 AM 23.0 °F 11.7 °F 8.6 °F 54% 30.00 in 10.0 mi NW 11.5 mph 21.9 mph N/A   Clear
8:15 AM 24.8 °F 14.0 °F 8.6 °F 50% 30.01 in 10.0 mi NW 11.5 mph 17.3 mph N/A   Clear
8:35 AM 23.0 °F 10.6 °F 8.6 °F 54% 30.02 in 10.0 mi WNW 13.8 mph 23.0 mph N/A   Mostly Cloudy
8:55 AM 23.0 °F 10.6 °F 8.6 °F 54% 30.04 in 10.0 mi NW 13.8 mph 20.7 mph N/A   Overcast
9:15 AM 23.0 °F 10.6 °F 8.6 °F 54% 30.05 in 10.0 mi WNW 13.8 mph 20.7 mph N/A   Overcast
9:35 AM 23.0 °F 10.6 °F 8.6 °F 54% 30.05 in 10.0 mi WNW 13.8 mph 20.7 mph N/A   Overcast
9:55 AM 24.8 °F 11.9 °F 8.6 °F 50% 30.06 in 10.0 mi WNW 16.1 mph - N/A   Overcast
10:15 AM 24.8 °F 11.1 °F 8.6 °F 50% 30.07 in 10.0 mi WNW 18.4 mph 26.5 mph N/A   Overcast
10:35 AM 24.8 °F 10.3 °F 8.6 °F 50% 30.07 in 10.0 mi WNW 20.7 mph - N/A   Overcast
10:55 AM 24.8 °F 12.4 °F 6.8 °F 46% 30.07 in 10.0 mi WNW 15.0 mph 23.0 mph N/A   Mostly Cloudy
11:15 AM 24.8 °F 11.1 °F 5.0 °F 43% 30.06 in 10.0 mi NW 18.4 mph 27.6 mph N/A   Mostly Cloudy
11:35 AM 24.8 °F 11.9 °F 6.8 °F 46% 30.06 in 10.0 mi West 16.1 mph 24.2 mph N/A   Overcast
11:55 AM 24.8 °F 11.1 °F 6.8 °F 46% 30.05 in 10.0 mi WNW 18.4 mph 25.3 mph N/A   Mostly Cloudy
12:15 PM 24.8 °F 12.4 °F 6.8 °F 46% 30.05 in 10.0 mi WNW 15.0 mph 21.9 mph N/A   Overcast
12:35 PM 24.8 °F 11.9 °F 6.8 °F 46% 30.05 in 10.0 mi WNW 16.1 mph 24.2 mph N/A   Overcast
12:55 PM 24.8 °F 12.9 °F 6.8 °F 46% 30.06 in 10.0 mi WNW 13.8 mph 25.3 mph N/A   Overcast
1:15 PM 24.8 °F 10.7 °F 6.8 °F 46% 30.06 in 10.0 mi WNW 19.6 mph - N/A   Overcast
1:35 PM 24.8 °F 12.4 °F 6.8 °F 46% 30.06 in 10.0 mi West 15.0 mph 23.0 mph N/A   Overcast
1:55 PM 24.8 °F 14.0 °F 8.6 °F 50% 30.07 in 10.0 mi West 11.5 mph 19.6 mph N/A   Mostly Cloudy
2:15 PM 24.8 °F 13.4 °F 8.6 °F 50% 30.08 in 10.0 mi West 12.7 mph 20.7 mph N/A   Mostly Cloudy
2:35 PM 24.8 °F 12.4 °F 8.6 °F 50% 30.09 in 10.0 mi West 15.0 mph 19.6 mph N/A   Mostly Cloudy
2:55 PM 24.8 °F 11.9 °F 10.4 °F 54% 30.09 in 10.0 mi WNW 16.1 mph 20.7 mph N/A   Overcast
3:15 PM 24.8 °F 12.4 °F 8.6 °F 50% 30.10 in 10.0 mi WNW 15.0 mph 19.6 mph N/A   Overcast
3:35 PM 24.8 °F 11.5 °F 8.6 °F 50% 30.10 in 10.0 mi WNW 17.3 mph - N/A   Overcast
3:55 PM 24.8 °F 13.4 °F 10.4 °F 54% 30.11 in 10.0 mi NW 12.7 mph - N/A   Overcast
4:15 PM 24.8 °F 13.4 °F 10.4 °F 54% 30.12 in 10.0 mi WNW 12.7 mph 21.9 mph N/A   Overcast
4:35 PM 24.8 °F 12.9 °F 12.2 °F 59% 30.12 in 10.0 mi WNW 13.8 mph - N/A   Overcast
4:55 PM 24.8 °F 14.0 °F 14.0 °F 64% 30.13 in 10.0 mi WNW 11.5 mph - N/A   Overcast
5:15 PM 24.8 °F 15.3 °F 14.0 °F 64% 30.13 in 10.0 mi WNW 9.2 mph - N/A   Overcast
5:35 PM 23.0 °F 11.7 °F 15.8 °F 74% 30.14 in 7.0 mi WNW 11.5 mph - N/A   Overcast
5:55 PM 23.0 °F 14.7 °F 15.8 °F 74% 30.14 in 10.0 mi WNW 6.9 mph - N/A   Overcast
6:15 PM 23.0 °F 15.8 °F 15.8 °F 74% 30.14 in 10.0 mi West 5.8 mph - N/A   Overcast
6:35 PM 23.0 °F 15.8 °F 15.8 °F 74% 30.14 in 10.0 mi WNW 5.8 mph - N/A   Overcast
6:55 PM 23.0 °F 15.8 °F 15.8 °F 74% 30.14 in 10.0 mi WNW 5.8 mph - N/A   Overcast
7:15 PM 23.0 °F 13.9 °F 15.8 °F 74% 30.14 in 10.0 mi WNW 8.1 mph - N/A   Overcast
7:35 PM 23.0 °F 14.7 °F 15.8 °F 74% 30.14 in 10.0 mi WNW 6.9 mph - N/A   Overcast
7:55 PM 23.0 °F 13.9 °F 14.0 °F 68% 30.14 in 10.0 mi WNW 8.1 mph - N/A   Overcast
8:15 PM 23.0 °F 17.0 °F 14.0 °F 68% 30.14 in 10.0 mi WNW 4.6 mph - N/A   Overcast
8:35 PM 23.0 °F 15.8 °F 14.0 °F 68% 30.15 in 10.0 mi WNW 5.8 mph - N/A   Overcast
8:55 PM 21.2 °F 13.6 °F 14.0 °F 74% 30.15 in 10.0 mi WNW 5.8 mph - N/A   Mostly Cloudy
9:15 PM 21.2 °F 16.4 °F 14.0 °F 74% 30.16 in 10.0 mi WNW 3.5 mph - N/A   Scattered Clouds
9:35 PM 19.4 °F - 14.0 °F 80% 30.16 in 10.0 mi Calm Calm - N/A   Clear
9:55 PM 19.4 °F - 14.0 °F 80% 30.15 in 10.0 mi Calm Calm - N/A   Clear
10:15 PM 17.6 °F - 14.0 °F 86% 30.15 in 10.0 mi Calm Calm - N/A   Clear
10:35 PM 17.6 °F - 14.0 °F 86% 30.15 in 10.0 mi Calm Calm - N/A   Clear
10:55 PM 17.6 °F - 14.0 °F 86% 30.14 in 10.0 mi Calm Calm - N/A   Clear
11:15 PM 17.6 °F 12.3 °F 14.0 °F 86% 30.14 in 10.0 mi South 3.5 mph - N/A   Clear
11:35 PM 15.8 °F 10.2 °F 14.0 °F 93% 30.14 in 10.0 mi SSW 3.5 mph - N/A   Clear
11:55 PM 17.6 °F 12.3 °F 15.8 °F 93% 30.14 in 10.0 mi SW 3.5 mph - N/A   Clear